Showing default

COSMOS 2215, 22186

Orbit data source: Space-Track

COSMOS 2215, 22186 is a payload satellite owned by VKS (CIS) in LEO that was launched on Tue, 20 Oct 1992 UTC via a TSIKLON-3 launch vehicle from the Plesetsk Missile And Space Complex (PKMTR). Payloads include a variety of satellites, spacecraft, and rockets equipped with specific instruments for various scientific and technological missions. These include communications satellites like Starlink; space stations such as the ISS; scientific satellites like the Hubble; Earth observation satellites from companies like Planet Labs, Umbra, and HawkEye 360; GPS; miniature CubeSats for education and research; and military/defense satellites.

Loading next visibility...
COSMOS 2215 details
Identifier
22186, 1992-068E
Orbit
LEO
Last TLE update21 hours ago
Origin
Flag of CISVKS (CIS)
ManufacturerNPO PM
MissionDefense Communications
Bus & MotorSTRELA-3, Unknown motor
Mass225 kg wet, 225 kg dry
Launch date (UTC)
1992-10-20 (32 years ago)
Launch vehicle
TSIKLON-3
Launch site
Plesetsk Missile And Space Complex (PKMTR)
Object type
Payload
Rocket body
Debris
Shape & HBRCyl, 1.6 m
Radar Cross Section1.257 m², Medium (>0.1 m² and < 1m²)

Expand to show TLE details & history

TLE from 21 hours ago
0 COSMOS 2215
1 22186U 92068E   24325.56853348  .00000033  00000-0  12718-3 0  9990
2 22186  82.6038  16.7217 0013072  39.0910 321.1123 12.60938764476575
Epoch: 2024-11-20T13:38Z
Definitive object data (Epoch: 2024-11-20T13:38:41.292Z)
Latitude0.00002°
Longitude111.9869°
Altitude1,413.871 km
Speed7.157 km/s
True Right ascension01h 06m 53s
True Declination0° 00' 00"
Sunlit
Object was in full shadow at TLE epoch
Visualization TLE readout
Latitude-36.79147°
Longitude105.89508°
Altitude1,430.082 km
Speed7.147 km/s
Apparent Right ascension22h 27m 39s
Apparent Declination-45° 13' 06"
Sunlit
Object is in daylight
Visualization observer readout
Local Sidereal Time07:26:58
Azimuth245.682° WSW
Elevation-56.756°
Doppler factor1
Orbital elements
Apogee altitude1,426.583 km
Perigee altitude1,406.205 km
Semi-major axis7,794.531 km
Eccentricity0.0013072
Inclination82.6038°
RAAN16.7217°
Arg. of periapsis39.091°
True anomaly321.01814°
Mean anomaly321.1123°
Eccentric anomaly321.06523°
Mean motion3.15397 °/min
BSTAR0.00012718
Orbital period114.14 mins
Loading maneuver chart data...
Loading historical data...
Loading historical data...
Loading historical data...
Loading historical data...
Loading historical data...
Loading historical data...
Loading historical data...

COSMOS 2215 Visibility forecast

Observer location: undefined°, undefined

Span
Click to sort rows by Start time (UTC) header in descending order
Start Az.
Max El. time (UTC)
Max El. Az.
Max El.
End time (UTC)
End Az.
15 mins2024-11-21 15:00:47.315Z0.228° NNE2024-11-21 15:07:47.315Z71.578° E41.728°2024-11-21 15:15:47.315Z159.165° S
11 mins2024-11-21 16:57:47.315Z319.509° NNW2024-11-21 17:02:47.315Z274.129° WNW23.494°2024-11-21 17:08:47.315Z227.147° WSW
14 mins2024-11-22 03:49:47.315Z168.92° S2024-11-22 03:56:47.315Z79.879° E42.006°2024-11-22 04:03:47.315Z14.61° NNE
12 mins2024-11-22 05:46:47.315Z244.678° WSW2024-11-22 05:51:47.315Z287.515° WNW23.514°2024-11-22 05:58:47.315Z345.356° N
|